TimePDT,TemperatureF,Dew PointF,Humidity,Sea Level PressureIn,VisibilityMPH,Wind Direction,Wind SpeedMPH,Gust SpeedMPH,PrecipitationIn,Events,Conditions,WindDirDegrees,DateUTC
12:56 AM,54.0,50.0,86,29.98,3.0,Calm,Calm,-,0.05,Rain,Rain,0,2012-10-13 07:56:00
1:56 AM,53.1,50.0,89,30.01,4.0,Calm,Calm,-,0.10,Rain,Rain,0,2012-10-13 08:56:00
2:56 AM,53.6,51.8,94,30.01,5.0,Calm,Calm,-,N/A,Rain,Light Rain,0,2012-10-13 09:56:00
3:56 AM,52.0,50.0,93,30.02,5.0,Calm,Calm,-,0.00,,Scattered Clouds,0,2012-10-13 10:56:00
4:08 AM,51.8,50.0,94,30.04,4.0,WNW,5.8,-,N/A,,Mostly Cloudy,300,2012-10-13 11:08:00
4:31 AM,51.8,51.8,100,30.05,1.8,Calm,Calm,-,N/A,,Overcast,0,2012-10-13 11:31:00
4:38 AM,51.8,51.8,100,30.05,0.8,Calm,Calm,-,N/A,,Overcast,0,2012-10-13 11:38:00
4:51 AM,51.8,51.8,100,30.06,1.5,Calm,Calm,-,N/A,,Overcast,0,2012-10-13 11:51:00
4:56 AM,51.8,51.8,100,30.06,1.8,South,4.6,-,N/A,,Overcast,170,2012-10-13 11:56:00
5:01 AM,51.8,51.8,100,30.06,0.8,South,4.6,-,N/A,,Overcast,170,2012-10-13 12:01:00
5:17 AM,51.8,51.8,100,30.06,1.5,South,5.8,-,N/A,,Overcast,170,2012-10-13 12:17:00
5:31 AM,51.8,51.8,100,30.07,3.0,SSE,3.5,-,N/A,,Overcast,160,2012-10-13 12:31:00
5:56 AM,52.0,50.0,93,30.07,4.0,ENE,3.5,-,N/A,,Overcast,60,2012-10-13 12:56:00
6:16 AM,51.8,51.8,100,30.07,2.5,Calm,Calm,-,N/A,,Overcast,0,2012-10-13 13:16:00
6:47 AM,51.8,50.0,94,30.09,4.0,NNE,4.6,-,N/A,Rain,Light Rain,20,2012-10-13 13:47:00
6:56 AM,51.1,50.0,96,30.09,5.0,Calm,Calm,-,0.01,,Mostly Cloudy,0,2012-10-13 13:56:00
7:56 AM,53.1,51.1,93,30.11,5.0,Calm,Calm,-,N/A,,Mostly Cloudy,0,2012-10-13 14:56:00
8:56 AM,55.4,51.8,88,30.13,5.0,Calm,Calm,-,N/A,,Mostly Cloudy,0,2012-10-13 15:56:00
9:23 AM,55.4,51.8,88,30.13,6.0,Calm,Calm,-,N/A,,Mostly Cloudy,0,2012-10-13 16:23:00
9:35 AM,55.4,51.8,88,30.13,7.0,Calm,Calm,-,N/A,,Scattered Clouds,0,2012-10-13 16:35:00
9:56 AM,57.0,52.0,83,30.14,9.0,Calm,Calm,-,N/A,,Mostly Cloudy,0,2012-10-13 16:56:00
10:56 AM,57.0,53.1,87,30.16,3.0,NE,4.6,-,N/A,,Overcast,40,2012-10-13 17:56:00
11:56 AM,61.0,53.1,75,30.16,10.0,Calm,Calm,-,N/A,,Overcast,0,2012-10-13 18:56:00
12:56 PM,66.2,51.8,60,30.15,10.0,Calm,Calm,-,N/A,,Mostly Cloudy,0,2012-10-13 19:56:00
1:56 PM,66.2,51.8,60,30.16,10.0,North,5.8,-,N/A,,Overcast,10,2012-10-13 20:56:00
2:56 PM,68.0,48.0,49,30.14,10.0,ENE,3.5,-,N/A,,Mostly Cloudy,70,2012-10-13 21:56:00
3:56 PM,70.0,48.0,46,30.14,10.0,NNE,3.5,-,N/A,,Scattered Clouds,30,2012-10-13 22:56:00
4:56 PM,68.0,48.0,49,30.15,10.0,Calm,Calm,-,N/A,,Overcast,0,2012-10-13 23:56:00
5:56 PM,64.4,51.8,64,30.16,10.0,Calm,Calm,-,N/A,,Partly Cloudy,0,2012-10-14 00:56:00
6:56 PM,62.1,52.0,70,30.17,10.0,SSW,3.5,-,N/A,,Mostly Cloudy,200,2012-10-14 01:56:00
7:56 PM,61.0,52.0,72,30.17,10.0,Calm,Calm,-,N/A,,Mostly Cloudy,0,2012-10-14 02:56:00
8:56 PM,60.1,51.1,72,30.18,10.0,ENE,6.9,-,N/A,,Partly Cloudy,70,2012-10-14 03:56:00
9:56 PM,60.8,51.8,72,30.19,10.0,East,6.9,-,N/A,,Overcast,100,2012-10-14 04:56:00
10:56 PM,61.0,52.0,72,30.19,10.0,ESE,5.8,-,N/A,,Overcast,110,2012-10-14 05:56:00
11:56 PM,60.1,52.0,75,30.19,10.0,Calm,Calm,-,N/A,,Overcast,0,2012-10-14 06:56:00